This is the latest recevied weather packets stored in our database for station/object KB1JLI. If no packets are shown the sender has not sent any weather packets the latest 10 day(s).
| Time | Temp. | Humidity | Pressure | Rain* | Wind** | Luminosity | Snow |
|---|---|---|---|---|---|---|---|
| 1777884675 | 8.33° C | 59% | 1010.3 hPa | 0 mm | - | 0 W/m² | - |
| 1777884372 | 8.33° C | 57% | 1010.2 hPa | 0 mm | - | 0 W/m² | - |
| 1777884068 | 7.78° C | 59% | 1010.4 hPa | 0 mm | - | 0 W/m² | - |
| 1777883766 | 7.78° C | 58% | 1010.5 hPa | 0 mm | - | 0 W/m² | - |
| 1777883463 | 7.78° C | 58% | 1010.3 hPa | 0 mm | - | 0 W/m² | - |
| 1777883158 | 7.78° C | 60% | 1010.2 hPa | 0 mm | - | 0 W/m² | - |
| 1777882855 | 8.33° C | 57% | 1010.5 hPa | 0 mm | - | 0 W/m² | - |
| 1777882552 | 8.33° C | 55% | 1010.5 hPa | 0 mm | - | 0 W/m² | - |
| 1777882248 | 8.33° C | 55% | 1010.6 hPa | 0 mm | - | 0 W/m² | - |
| 1777881945 | 8.33° C | 56% | 1010.3 hPa | 0 mm | - | 0 W/m² | - |
| 1777881642 | 8.33° C | 56% | 1010.3 hPa | 0 mm | - | 0 W/m² | - |
| 1777881338 | 7.78° C | 57% | 1010.3 hPa | 0 mm | - | 0 W/m² | - |
| 1777881035 | 7.78° C | 57% | 1010.4 hPa | 0 mm | - | 0 W/m² | - |
| 1777880733 | 7.78° C | 57% | 1010.2 hPa | 0 mm | - | 0 W/m² | - |
| 1777880431 | 7.78° C | 57% | 1010.2 hPa | 0 mm | - | 0 W/m² | - |
| 1777880130 | 7.22° C | 62% | 1010.1 hPa | 0 mm | - | 0 W/m² | - |
| 1777879827 | 7.22° C | 61% | 1010.4 hPa | 0 mm | - | 0 W/m² | - |
| 1777879525 | 7.22° C | 61% | 1010.5 hPa | 0 mm | - | 0 W/m² | - |
| 1777879221 | 7.22° C | 63% | 1010.5 hPa | 0 mm | - | 0 W/m² | - |
| 1777878918 | 7.22° C | 62% | 1010.3 hPa | 0 mm | - | 0 W/m² | - |
| 1777878615 | 7.22° C | 61% | 1010.3 hPa | 0 mm | - | 0 W/m² | - |
| 1777878313 | 6.67° C | 61% | 1010.3 hPa | 0 mm | - | 0 W/m² | - |
| 1777878009 | 6.67° C | 60% | 1010.2 hPa | 0 mm | - | 0 W/m² | - |
| 1777877705 | 6.67° C | 61% | 1010.2 hPa | 0 mm | - | 0 W/m² | - |
| 1777877402 | 6.67° C | 63% | 1010.3 hPa | 0 mm | - | 0 W/m² | - |
* Rain latest hour (hover to see other rain measurements)
** Current wind speed in m/s (hover to see current wind gust speed)